GEFSMA_500_meanwind_132.txt.gz
Wind_Speed
22 22 22 22 22 23 24 24 24 24 23 23 23 23 23 24 23 22 22 22 22 22 22 21 20 20 20 20 19 18 18 18 18 17 17 16 16 16 16 16 16 16 16
23 23 23 23 24 24 25 26 25 25 24 23 23 23 23 24 24 24 23 23 23 23 23 23 22 21 20 20 19 20 19 19 20 20 19 19 19 19 18 19 19 19 19
23 24 24 24 24 25 25 25 25 25 25 24 24 24 24 24 25 24 24 24 24 24 23 23 23 23 21 21 21 21 21 20 21 21 21 21 21 21 21 21 21 21 21
23 24 24 25 25 25 26 26 26 26 26 26 25 25 25 25 26 26 25 25 24 23 24 23 23 23 23 22 22 22 22 22 22 23 22 22 23 22 22 22 23 23 24
24 24 24 25 25 26 26 27 27 27 27 27 26 26 26 25 25 25 25 25 25 24 24 24 25 24 24 23 24 24 25 24 24 24 24 24 25 25 25 25 25 25 26
24 25 25 26 26 26 27 28 28 28 28 28 28 28 27 27 26 26 26 26 25 26 27 26 26 25 25 26 26 25 25 25 25 25 26 25 26 26 27 27 27 27 28
24 25 25 27 28 28 28 28 28 28 28 29 29 28 28 27 27 27 27 27 27 27 28 27 27 27 26 26 26 26 26 26 26 26 27 27 28 28 29 29 29 29 30
25 25 26 28 29 29 29 28 28 28 28 28 29 29 28 27 27 27 27 26 26 27 27 27 27 28 27 28 28 27 27 27 28 27 27 28 29 29 30 31 31 31 33
26 27 27 28 28 29 29 28 28 28 28 28 28 28 28 27 27 27 27 26 26 26 26 26 27 28 29 28 27 28 29 29 28 28 28 30 30 32 33 32 32 33 35
27 28 28 28 28 29 29 28 27 27 27 27 27 27 27 27 27 27 27 27 27 26 26 26 26 27 27 28 27 28 29 30 30 30 30 31 31 32 33 33 34 34 34
28 28 29 28 28 28 28 28 28 27 27 27 26 27 27 27 27 27 28 27 27 27 26 27 27 28 28 28 28 29 30 30 31 31 31 31 31 32 32 33 34 34 35
28 28 29 28 28 28 28 28 27 27 27 26 26 26 27 27 27 27 27 26 26 27 27 27 27 27 29 29 30 30 31 32 33 32 32 32 32 32 32 33 34 35 37
28 28 28 28 28 28 27 27 27 27 26 26 26 26 27 27 27 27 26 26 26 27 27 26 26 27 28 30 30 31 31 32 33 33 33 32 32 32 33 34 35 36 36
28 28 28 28 28 28 28 27 27 27 26 26 25 25 25 26 26 26 26 26 27 27 27 27 27 27 28 28 29 30 31 32 32 32 33 33 33 34 35 36 36 37 38
27 27 27 27 27 28 28 27 27 26 26 26 25 25 25 25 25 26 26 27 27 26 26 26 26 27 28 28 28 28 29 30 31 31 32 33 34 34 35 36 36 37 39
27 27 27 27 27 27 27 27 27 27 26 26 25 25 25 24 25 25 25 25 25 26 26 25 26 27 27 26 27 28 28 29 29 30 30 32 33 34 35 35 36 36 36
26 25 25 25 26 25 25 26 26 26 26 25 25 24 24 24 24 24 24 24 24 24 24 25 25 25 25 26 27 27 28 28 29 30 31 32 33 33 34 34 34 33 34
25 24 24 24 24 24 23 23 23 23 24 24 24 25 24 24 24 23 23 23 23 23 24 24 24 24 24 25 25 26 27 27 28 29 30 31 32 32 32 32 31 31 32
23 23 22 22 22 22 22 22 22 22 22 22 22 24 24 24 24 23 23 22 23 23 23 23 23 24 24 24 25 26 26 26 27 27 28 29 30 30 29 29 29 29 29
21 20 19 19 20 20 20 20 20 21 21 20 20 21 21 22 22 21 21 22 21 21 21 22 22 22 23 23 23 24 24 24 25 25 26 26 26 26 26 26 26 26 27
16 16 16 16 17 17 17 17 17 17 18 18 18 18 18 19 21 20 19 19 20 20 20 21 21 21 21 21 21 21 21 22 22 22 22 22 22 22 22 23 24 24 24
13 13 13 13 13 13 13 13 13 14 15 15 15 15 16 17 17 17 17 18 18 18 18 18 17 18 18 18 18 18 18 18 18 19 19 19 20 20 20 21 21 22 22
10 10 9 10 10 10 10 10 10 10 11 11 11 11 12 13 14 14 14 13 13 14 14 14 14 15 15 15 15 15 15 15 15 15 15 16 16 17 17 18 19 19 21
7 7 7 6 6 6 6 6 6 6 5 5 6 6 7 8 9 9 10 10 9 10 11 12 12 13 13 13 12 12 12 13 13 14 14 14 14 15 16 17 18 19 20
5 4 4 4 3 3 3 2 2 2 2 2 2 3 3 3 4 4 5 5 6 7 8 8 9 9 9 9 9 9 10 10 10 11 12 12 13 14 15 16 17 18 19
2 2 2 1 1 2 2 2 0 0 1 2 2 2 2 2 2 2 2 3 4 5 5 5 5 6 6 6 6 7 8 8 9 10 11 12 13 14 15 15 16 17 17

GEFSMA_500_meanwind_138.txt.gz
Wind_Speed
23 23 23 22 22 21 20 20 20 20 20 21 21 20 20 20 20 20 21 22 21 21 21 21 21 20 20 19 19 20 20 19 20 20 20 20 19 19 19 19 19 18 18
24 24 23 24 23 22 21 21 21 22 22 21 22 22 22 22 22 22 22 22 22 22 22 23 22 22 21 21 21 21 22 21 21 21 22 22 22 22 22 21 21 21 21
24 25 25 25 25 24 23 23 23 23 23 23 23 23 23 23 23 22 22 22 23 23 23 23 22 22 23 23 22 21 21 22 22 22 22 23 24 24 23 23 23 23 23
25 25 26 26 26 25 25 24 24 24 24 24 24 25 24 24 24 24 25 24 24 24 24 24 23 23 24 24 23 22 22 22 23 23 23 24 24 25 25 25 25 26 25
25 26 27 27 27 26 26 26 25 26 25 25 25 26 26 26 26 26 26 26 26 25 25 26 25 24 25 25 24 23 23 23 24 25 26 26 26 27 27 27 27 27 27
26 27 27 27 27 27 26 26 26 26 27 27 27 27 27 27 27 27 27 27 26 26 26 27 27 26 26 25 25 24 25 25 25 26 27 28 28 28 28 28 28 28 28
26 27 28 27 28 28 27 27 27 27 28 27 27 27 27 27 27 27 27 26 26 26 27 27 28 27 26 25 26 26 25 26 26 26 27 28 29 29 29 28 29 29 29
26 26 27 28 27 28 27 27 27 28 28 27 27 27 27 27 27 27 27 26 26 26 26 26 26 26 26 26 26 28 28 28 28 28 28 29 29 29 30 30 30 30 31
27 27 27 27 27 27 28 28 28 28 28 28 28 28 27 27 27 27 27 27 27 27 27 27 27 27 27 28 28 28 29 30 30 29 29 31 31 31 31 31 32 32 33
27 27 27 28 28 28 29 29 30 29 29 29 29 29 29 28 28 28 28 28 28 28 27 28 28 28 28 29 29 30 30 30 31 31 32 32 32 31 31 31 32 32 32
27 28 28 29 29 30 30 30 30 30 30 29 29 28 28 28 28 28 28 28 28 28 28 28 29 29 29 30 29 30 31 31 31 31 31 31 31 31 30 31 31 31 31
28 29 29 30 30 30 30 30 30 30 30 29 28 28 28 28 28 28 28 27 27 27 28 29 29 29 30 29 29 29 29 30 30 31 31 30 30 30 31 31 31 32 32
29 29 29 29 29 29 29 29 29 29 29 29 29 29 29 28 29 28 28 28 28 28 28 28 28 28 28 29 29 29 29 29 30 30 32 31 30 30 31 32 32 33 34
29 29 28 28 29 29 29 29 28 28 29 29 29 29 29 29 29 28 28 29 29 28 28 28 27 27 27 27 28 28 28 29 29 30 30 30 30 30 31 31 33 33 34
29 28 28 28 28 29 29 30 29 29 29 29 29 29 29 29 29 28 28 29 28 29 28 28 27 26 26 26 26 27 27 27 29 29 30 31 31 31 32 32 33 34 34
28 28 29 29 29 29 29 30 29 29 29 28 28 29 29 29 29 28 28 28 28 28 28 27 26 25 25 26 26 26 26 27 28 29 30 30 30 31 31 31 32 32 32
29 29 28 28 28 28 28 28 28 28 27 27 27 27 27 27 27 26 26 26 26 26 26 26 26 25 24 25 26 27 27 27 27 28 28 29 29 29 28 29 30 29 29
26 26 26 25 26 26 25 25 24 24 24 24 24 24 24 24 24 24 24 23 24 24 23 23 23 23 23 23 24 24 25 25 26 26 26 26 26 27 27 27 26 26 27
24 23 23 23 23 23 23 22 22 22 22 22 22 22 22 23 23 22 21 21 21 21 21 21 21 21 21 21 22 23 23 23 23 23 23 22 23 24 25 25 25 26 26
20 20 20 20 20 20 20 19 19 19 19 19 20 20 20 20 20 20 20 19 19 19 20 20 21 20 19 19 20 22 21 21 21 21 21 21 22 22 23 24 24 24 24
17 16 16 17 16 17 17 17 17 17 16 16 16 16 17 17 17 18 18 18 18 18 18 19 19 19 18 18 18 19 19 19 19 19 19 20 19 19 19 20 20 21 21
14 14 13 13 13 14 14 14 15 14 14 14 14 13 13 13 14 14 15 16 16 16 16 16 16 15 15 16 16 16 15 15 16 16 16 16 16 16 17 17 17 18 18
12 12 11 10 11 10 10 11 11 12 12 11 10 10 10 10 11 12 12 13 13 13 13 13 12 12 12 13 13 13 13 13 13 13 13 13 13 14 15 15 16 16 17
9 9 8 8 7 8 8 8 8 8 8 8 8 8 7 8 8 9 9 9 8 8 9 9 9 9 9 9 10 10 9 9 9 10 10 11 11 12 13 14 14 15 16
7 6 6 5 5 4 4 4 4 4 4 5 5 5 5 5 6 6 7 7 6 6 6 6 6 6 6 6 6 6 6 6 7 8 8 8 9 10 11 11 12 13 14
4 3 3 2 2 2 1 1 2 2 2 3 3 3 4 4 5 5 5 5 5 4 4 4 4 3 3 3 3 3 3 3 4 4 5 6 8 9 10 11 12 12 14

GEFSMA_500_meanwind_144.txt.gz
Wind_Speed
23 22 22 22 21 20 20 21 21 21 21 20 19 20 20 20 20 20 19 20 19 19 19 19 19 20 20 20 19 18 19 20 20 20 21 22 22 22 21 22 21 21 20
22 22 22 23 22 22 21 22 23 23 22 21 20 20 20 20 21 22 21 21 21 21 20 20 21 21 22 22 21 20 20 20 21 21 22 23 24 24 24 23 23 23 22
24 24 24 24 23 23 23 24 24 24 23 22 21 21 21 21 22 22 23 23 22 22 22 22 21 21 21 21 21 21 21 21 22 22 22 23 24 25 26 26 25 25 26
25 25 24 24 25 25 25 26 25 25 24 23 22 22 22 22 23 23 23 24 24 24 23 23 23 22 21 21 21 21 21 22 23 23 24 24 25 25 26 27 27 27 27
25 25 24 24 24 25 25 25 25 25 25 24 23 23 23 23 24 23 24 24 25 25 24 24 23 23 23 23 23 22 22 22 22 23 23 23 24 25 25 27 28 28 29
26 26 24 24 25 26 26 26 25 25 26 26 25 25 25 25 25 25 25 25 25 25 25 24 24 24 25 25 24 24 25 25 24 24 25 24 24 25 26 27 27 27 29
25 26 25 25 25 26 26 26 26 25 25 26 26 24 24 25 25 25 26 25 25 25 25 25 24 24 24 24 25 25 26 26 26 26 26 26 26 26 26 27 28 27 28
26 27 25 25 25 26 26 26 26 26 26 26 26 25 25 26 25 26 25 25 25 25 25 25 25 25 25 24 25 26 26 27 26 27 26 26 27 27 27 28 29 30 29
27 27 26 26 26 26 27 27 27 27 27 28 27 27 27 26 26 25 26 25 25 25 25 25 25 26 26 26 25 26 27 27 27 27 26 26 26 27 27 27 28 29 30
27 27 27 27 27 28 28 28 28 28 27 27 28 28 28 28 28 27 26 26 26 25 25 25 25 26 26 27 27 26 27 27 28 28 27 26 26 27 27 27 28 28 29
27 27 28 29 29 29 29 29 28 28 28 27 27 28 29 28 28 27 26 27 27 27 27 26 26 26 26 26 27 27 27 28 28 28 26 26 26 27 27 28 28 28 28
27 28 28 28 28 28 28 28 28 28 28 28 28 28 28 28 27 27 27 28 28 28 28 27 27 26 26 26 26 26 27 27 26 27 26 26 26 26 27 27 28 28 28
26 27 27 26 27 27 28 28 28 27 27 27 27 27 27 28 28 28 28 28 28 28 28 28 28 27 27 26 25 25 25 26 26 26 25 26 26 25 25 27 28 28 28
26 26 27 27 27 27 27 27 27 27 27 27 26 26 26 27 27 27 28 28 28 27 27 27 27 26 25 24 24 24 24 25 25 25 25 26 26 26 26 27 28 28 27
26 26 26 26 26 26 26 26 26 26 26 25 25 25 26 26 26 26 27 27 27 27 27 27 26 25 25 24 23 23 23 24 24 24 25 25 26 25 26 26 26 26 26
24 23 24 24 25 25 25 25 25 25 25 25 25 25 25 25 25 25 25 26 26 26 26 25 24 24 24 24 24 24 24 24 24 24 25 24 24 24 24 24 25 25 26
23 23 22 22 23 24 24 24 24 24 24 24 25 25 25 24 24 24 24 24 24 25 24 24 24 23 24 24 24 24 24 24 23 23 23 23 23 23 22 23 23 23 24
23 22 21 21 21 21 22 22 22 22 23 23 23 23 23 23 23 23 24 24 23 22 22 23 22 22 22 22 22 22 22 22 21 21 21 21 21 21 21 21 22 22 22
20 19 19 19 19 19 19 20 20 21 21 20 20 20 21 22 22 22 22 22 21 21 21 21 20 20 20 20 20 20 19 19 19 19 19 19 19 19 20 20 21 21 20
17 17 17 18 18 18 18 18 17 17 17 17 17 18 18 18 19 19 19 19 19 19 19 18 19 19 18 18 18 18 18 17 16 16 16 17 17 17 17 18 18 18 18
16 15 15 15 15 15 15 15 14 14 15 15 15 15 16 15 16 16 17 17 18 18 18 17 17 17 16 17 17 16 16 15 15 15 15 15 16 16 16 15 15 14 14
13 13 13 13 13 13 12 12 12 13 13 13 13 13 13 13 13 13 13 14 15 15 15 15 15 14 14 14 14 13 13 14 14 13 13 13 13 12 12 12 12 12 13
10 10 10 10 10 10 11 11 11 11 11 11 11 11 11 11 11 11 11 11 11 12 12 12 12 12 12 12 12 12 12 11 11 11 11 10 9 9 9 10 11 11 12
9 8 8 8 7 8 8 9 9 10 10 10 10 9 9 9 9 9 9 9 10 10 10 10 11 10 10 10 10 9 9 9 8 8 9 8 8 9 9 9 9 10 10
7 7 6 6 5 5 5 5 6 7 7 8 8 8 8 8 8 8 8 8 8 8 8 8 8 8 8 7 7 6 6 6 7 7 7 7 7 8 8 8 8 8 9
5 5 5 4 4 4 3 3 3 4 4 4 5 5 5 5 5 6 6 6 6 7 6 6 6 6 5 5 5 5 5 5 5 5 5 5 5 6 6 6 7 8 9

GEFSMA_500_meanwind_150.txt.gz
Wind_Speed
24 23 24 24 24 25 25 24 24 24 23 23 23 23 23 23 23 22 21 19 19 17 18 18 17 17 17 17 17 18 18 18 19 20 20 20 20 20 21 21 22 22 22
25 25 24 23 24 24 24 23 23 23 23 23 22 22 22 23 23 23 21 20 20 20 20 19 18 18 18 17 17 18 18 19 19 20 20 21 21 21 22 22 23 24 24
25 25 25 24 23 23 23 23 24 24 23 23 22 22 22 22 23 23 22 22 21 21 20 19 18 18 19 18 18 18 19 19 20 19 19 21 22 23 23 23 24 25 26
26 25 25 24 24 23 23 23 23 24 23 23 23 23 23 22 23 23 23 22 22 22 21 21 20 20 20 20 20 20 19 19 20 20 20 21 21 22 23 24 24 25 27
27 26 25 25 24 25 24 23 23 23 24 24 24 25 24 24 23 23 23 23 23 23 22 22 22 21 21 20 20 21 21 21 21 21 21 21 22 22 23 24 24 24 26
27 28 27 26 25 25 25 25 24 24 25 24 24 25 25 24 24 24 24 24 23 23 22 22 22 21 21 21 21 22 22 22 22 23 22 22 22 22 23 24 25 25 26
28 27 27 26 25 24 24 25 25 24 25 25 25 25 25 25 25 25 24 24 23 23 22 22 22 22 21 21 22 22 22 23 23 24 24 23 23 23 24 25 26 26 26
27 27 27 27 26 25 25 26 26 25 25 25 25 25 25 25 25 25 25 24 24 23 22 22 22 22 22 21 21 22 22 22 23 24 24 23 23 23 24 25 26 27 27
27 27 27 27 27 26 26 26 26 26 26 25 25 25 25 26 25 26 26 26 25 24 23 23 23 23 22 22 22 22 22 22 23 23 23 24 23 23 23 23 24 25 26
25 26 28 28 28 27 27 27 27 27 26 25 25 26 26 26 26 26 26 26 25 25 24 24 24 23 23 23 23 23 23 23 23 23 23 23 23 23 23 24 24 24 24
26 26 26 27 27 27 27 26 27 27 27 27 26 26 26 26 26 26 26 25 25 25 25 25 24 24 24 24 23 24 23 24 23 22 22 22 23 23 23 23 23 23 23
25 25 25 25 25 25 25 25 26 27 27 27 27 26 26 26 25 26 25 25 25 25 24 24 24 25 25 25 24 24 24 23 23 22 22 23 23 24 24 25 24 23 23
24 23 23 23 22 22 23 24 24 25 26 26 26 26 25 25 25 25 25 24 24 24 24 24 24 24 25 25 24 24 24 23 23 23 23 22 23 23 24 23 23 23 24
23 23 23 22 22 22 23 23 23 23 24 25 25 25 24 25 25 24 24 24 24 24 24 24 24 24 23 23 23 23 24 24 24 24 23 23 23 24 23 23 23 23 23
23 23 22 22 22 22 22 22 22 22 23 24 24 24 24 24 23 23 23 24 24 23 24 24 23 23 23 22 22 23 23 23 23 23 23 24 24 23 24 23 22 23 23
23 23 23 23 22 22 22 22 22 22 22 22 22 23 23 22 23 23 23 24 24 24 23 23 23 24 23 23 23 23 23 22 22 22 23 23 23 23 23 23 22 22 22
22 22 22 22 22 22 21 21 21 21 20 20 21 21 21 22 22 23 23 23 24 24 23 23 23 23 23 23 23 22 22 21 21 21 21 21 21 22 23 22 22 22 22
22 21 20 20 20 20 20 20 20 20 19 19 19 19 19 20 21 21 21 21 21 21 21 21 22 22 21 21 21 21 20 20 20 21 21 21 21 21 22 22 21 21 21
20 19 19 18 18 18 18 18 18 19 18 19 19 18 18 19 19 20 20 20 20 19 19 19 19 19 19 19 19 20 20 19 19 20 20 20 20 20 21 20 20 21 20
16 16 16 16 15 16 16 16 16 17 17 17 17 16 16 16 17 17 18 18 18 17 17 17 17 16 16 17 17 17 18 18 18 18 19 19 19 18 18 18 19 18 18
14 14 14 14 14 14 15 14 14 15 15 15 15 14 14 14 15 15 15 15 14 14 15 15 16 15 15 15 15 15 16 16 16 17 17 17 17 17 17 16 16 16 16
13 12 13 12 12 12 12 12 13 13 12 13 14 13 12 13 13 13 13 13 13 13 13 14 14 14 15 14 14 13 14 14 14 14 14 14 14 13 13 12 13 13 13
10 10 10 9 9 9 10 10 10 10 10 11 11 11 11 11 12 12 11 11 12 12 13 13 13 13 13 12 12 12 12 12 13 12 12 11 11 10 10 11 11 11 11
8 7 7 7 7 7 8 8 8 8 9 9 9 10 10 11 11 10 10 11 11 11 11 11 11 10 10 11 10 10 10 10 10 9 9 8 9 9 9 9 10 11 11
6 5 5 5 5 5 6 6 6 6 7 7 8 8 8 8 9 9 9 9 9 9 9 8 8 8 8 8 9 8 8 8 8 8 7 7 7 7 8 9 10 10 11
6 6 5 5 4 3 3 4 5 4 5 6 6 7 7 7 7 7 6 6 6 6 7 7 7 8 8 8 8 7 7 7 8 8 7 7 7 8 8 9 10 10 11